time, Switch, Flow(0), Analog(2)
yyyy/mm/dd HH:MM:SS.fff, True=FILTERED|False=TOTAL, L/min, V
2023/06/26 12:00:02.187, True, 4.310, 0.124819
2023/06/26 12:00:02.683, True, 4.380, 0.126879
2023/06/26 12:00:03.187, True, 4.311, 0.126040
2023/06/26 12:00:03.691, True, 3.648, 0.126802
2023/06/26 12:00:04.187, True, 2.696, 0.125048
2023/06/26 12:00:04.691, True, 1.990, 0.126879
2023/06/26 12:00:05.195, True, 1.990, 0.126497
2023/06/26 12:00:05.698, True, 1.990, 0.124514
2023/06/26 12:00:06.195, True, 1.685, 0.124590
2023/06/26 12:00:06.699, True, 1.990, 0.124056
2023/06/26 12:00:07.202, True, 1.990, 0.128176
2023/06/26 12:00:07.698, True, 1.685, 0.125124
2023/06/26 12:00:08.203, True, 1.990, 0.123751
2023/06/26 12:00:08.706, True, 1.658, 0.126726
2023/06/26 12:00:09.203, True, 1.685, 0.126421
2023/06/26 12:00:09.706, True, 1.990, 0.125582
2023/06/26 12:00:10.211, True, 1.659, 0.124285
2023/06/26 12:00:10.706, True, 1.684, 0.125124
2023/06/26 12:00:11.211, True, 1.990, 0.127871
2023/06/26 12:00:11.714, True, 1.990, 0.125353
2023/06/26 12:00:12.218, True, 1.658, 0.124361
2023/06/26 12:00:12.714, True, 1.685, 0.126116
2023/06/26 12:00:13.218, True, 1.990, 0.124285
2023/06/26 12:00:13.722, True, 1.990, 0.124361
2023/06/26 12:00:14.226, True, 1.658, 0.126421
2023/06/26 12:00:14.722, True, 2.022, 0.124285
2023/06/26 12:00:15.226, True, 1.990, 0.124666
2023/06/26 12:00:15.722, True, 1.685, 0.125429
2023/06/26 12:00:16.226, True, 1.990, 0.124743
2023/06/26 12:00:16.730, True, 1.991, 0.124971
2023/06/26 12:00:17.226, True, 1.684, 0.123293
2023/06/26 12:00:17.730, True, 1.990, 0.126879
2023/06/26 12:00:18.234, True, 1.990, 0.123445
2023/06/26 12:00:18.738, True, 1.658, 0.126116
2023/06/26 12:00:19.234, True, 2.021, 0.126574
2023/06/26 12:00:19.738, True, 1.659, 0.124285
2023/06/26 12:00:20.242, True, 1.989, 0.126574
2023/06/26 12:00:20.738, True, 1.686, 0.123217
2023/06/26 12:00:21.242, True, 1.989, 0.124971
2023/06/26 12:00:21.746, True, 1.658, 0.126345
2023/06/26 12:00:22.242, True, 2.021, 0.124208
2023/06/26 12:00:22.746, True, 1.990, 0.126345
2023/06/26 12:00:23.250, True, 1.658, 0.125429
2023/06/26 12:00:23.746, True, 2.022, 0.124208
2023/06/26 12:00:24.250, True, 1.658, 0.125734
2023/06/26 12:00:24.746, True, 2.022, 0.126497
2023/06/26 12:00:25.250, True, 1.991, 0.124208
2023/06/26 12:00:25.754, True, 1.988, 0.124895
2023/06/26 12:00:26.258, True, 1.658, 0.124743
2023/06/26 12:00:26.754, True, 2.022, 0.126497
2023/06/26 12:00:27.258, True, 1.658, 0.124819
2023/06/26 12:00:27.762, True, 1.989, 0.125200
2023/06/26 12:00:28.258, True, 2.021, 0.126879
2023/06/26 12:00:28.762, True, 1.661, 0.125353
2023/06/26 12:00:29.266, True, 1.990, 0.125658
2023/06/26 12:00:29.762, True, 1.682, 0.125963
2023/06/26 12:00:30.266, True, 1.659, 0.124056
2023/06/26 12:00:30.770, True, 1.989, 0.124361
2023/06/26 12:00:31.267, True, 1.685, 0.127031
2023/06/26 12:00:31.770, True, 1.991, 0.127413
2023/06/26 12:00:32.274, True, 1.657, 0.125429
2023/06/26 12:00:32.778, True, 1.989, 0.124895
2023/06/26 12:00:33.274, True, 1.685, 0.123903
2023/06/26 12:00:33.778, True, 1.991, 0.126421
2023/06/26 12:00:34.282, True, 1.989, 0.124590
2023/06/26 12:00:34.778, True, 2.022, 0.127413
2023/06/26 12:00:35.282, True, 1.988, 0.125658
2023/06/26 12:00:35.786, True, 1.990, 0.126879
2023/06/26 12:00:36.282, True, 1.686, 0.125582
2023/06/26 12:00:36.786, True, 1.988, 0.128710
2023/06/26 12:00:37.290, True, 1.990, 0.127337
2023/06/26 12:00:37.786, True, 1.685, 0.126268
2023/06/26 12:00:38.290, True, 1.990, 0.125658
2023/06/26 12:00:38.794, True, 1.992, 0.128786
2023/06/26 12:00:39.290, True, 1.683, 0.129244
2023/06/26 12:00:39.794, True, 1.991, 0.126879
2023/06/26 12:00:40.298, True, 1.991, 0.130159
2023/06/26 12:00:40.794, True, 1.682, 0.127947
2023/06/26 12:00:41.298, True, 1.990, 0.130007
2023/06/26 12:00:41.802, True, 1.658, 0.130617
2023/06/26 12:00:42.298, True, 2.022, 0.128481
2023/06/26 12:00:42.802, True, 1.990, 0.131151
2023/06/26 12:00:43.298, True, 1.686, 0.127718
2023/06/26 12:00:43.802, True, 1.988, 0.129854
2023/06/26 12:00:44.306, True, 1.990, 0.131304
2023/06/26 12:00:44.810, True, 1.990, 0.131456
2023/06/26 12:00:45.306, True, 1.685, 0.133364
2023/06/26 12:00:45.810, True, 1.990, 0.131685
2023/06/26 12:00:46.314, True, 1.660, 0.130083
2023/06/26 12:00:46.810, True, 2.019, 0.130770
2023/06/26 12:00:47.314, True, 1.990, 0.131456
2023/06/26 12:00:47.810, True, 2.022, 0.133669
2023/06/26 12:00:48.314, True, 1.990, 0.132601
2023/06/26 12:00:48.818, True, 1.657, 0.134051
2023/06/26 12:00:49.314, True, 2.023, 0.135195
2023/06/26 12:00:49.818, True, 1.993, 0.133059
2023/06/26 12:00:50.322, True, 1.990, 0.135348
2023/06/26 12:00:50.818, True, 2.018, 0.133669
2023/06/26 12:00:51.322, True, 1.989, 0.133822
2023/06/26 12:00:51.826, True, 1.659, 0.138399
2023/06/26 12:00:52.322, True, 2.021, 0.135424
2023/06/26 12:00:52.826, True, 1.990, 0.133288
2023/06/26 12:00:53.330, True, 1.658, 0.136034
2023/06/26 12:00:53.826, True, 2.022, 0.133898
2023/06/26 12:00:54.330, True, 1.991, 0.132677
2023/06/26 12:00:54.834, True, 1.988, 0.135042
2023/06/26 12:00:55.330, True, 2.022, 0.135958
2023/06/26 12:00:55.834, True, 1.989, 0.134356
2023/06/26 12:00:56.338, True, 1.990, 0.135042
2023/06/26 12:00:56.843, True, 1.990, 0.136568
2023/06/26 12:00:57.338, True, 1.685, 0.133059
2023/06/26 12:00:57.842, True, 1.990, 0.137484
2023/06/26 12:00:58.338, True, 2.022, 0.136568
2023/06/26 12:00:58.842, True, 1.658, 0.135653
2023/06/26 12:00:59.346, True, 1.990, 0.136187
2023/06/26 12:00:59.850, True, 1.990, 0.137407
2023/06/26 12:01:00.346, True, 1.684, 0.135882
2023/06/26 12:01:00.850, True, 1.989, 0.133822
2023/06/26 12:01:01.346, True, 2.021, 0.136110
2023/06/26 12:01:01.850, True, 1.990, 0.135805
2023/06/26 12:01:02.354, True, 1.658, 0.134432
2023/06/26 12:01:02.850, True, 2.022, 0.135348
2023/06/26 12:01:03.354, True, 1.658, 0.136645
2023/06/26 12:01:03.858, True, 1.990, 0.135119
2023/06/26 12:01:04.354, True, 2.022, 0.137865
2023/06/26 12:01:04.858, True, 1.658, 0.137560
2023/06/26 12:01:05.362, True, 1.990, 0.136339
2023/06/26 12:01:05.866, True, 1.990, 0.137179
2023/06/26 12:01:06.362, True, 2.022, 0.136873
2023/06/26 12:01:06.866, True, 1.660, 0.135424
2023/06/26 12:01:07.370, True, 1.988, 0.136034
2023/06/26 12:01:07.866, True, 2.024, 0.135042
2023/06/26 12:01:08.370, True, 1.656, 0.134737
2023/06/26 12:01:08.874, True, 1.658, 0.136568
2023/06/26 12:01:09.370, True, 2.022, 0.135195
2023/06/26 12:01:09.874, True, 1.992, 0.137484
2023/06/26 12:01:10.378, True, 1.656, 0.138933
2023/06/26 12:01:10.874, True, 2.022, 0.136110
2023/06/26 12:01:11.378, True, 1.658, 0.136645
2023/06/26 12:01:11.882, True, 1.990, 0.137102
2023/06/26 12:01:12.378, True, 2.021, 0.135958
2023/06/26 12:01:12.882, True, 1.658, 0.135500
2023/06/26 12:01:13.378, True, 2.022, 0.134356
2023/06/26 12:01:13.882, True, 1.990, 0.136950
2023/06/26 12:01:14.386, True, 1.989, 0.134813
2023/06/26 12:01:14.882, True, 2.022, 0.135653
2023/06/26 12:01:15.386, True, 1.990, 0.137484
2023/06/26 12:01:15.890, True, 1.658, 0.136645
2023/06/26 12:01:16.386, True, 2.021, 0.136873
2023/06/26 12:01:16.890, True, 1.658, 0.138247
2023/06/26 12:01:17.394, True, 1.990, 0.136645
2023/06/26 12:01:17.898, True, 1.658, 0.134432
2023/06/26 12:01:18.394, True, 1.685, 0.138781
2023/06/26 12:01:18.898, True, 1.990, 0.136416
2023/06/26 12:01:19.402, True, 1.658, 0.135576
2023/06/26 12:01:19.898, True, 2.022, 0.139239
2023/06/26 12:01:20.402, True, 1.990, 0.136568
2023/06/26 12:01:20.906, True, 1.658, 0.137179
2023/06/26 12:01:21.402, True, 2.022, 0.136568
2023/06/26 12:01:21.906, True, 1.990, 0.136034
2023/06/26 12:01:22.410, True, 1.990, 0.135195
2023/06/26 12:01:22.906, True, 1.685, 0.139849
2023/06/26 12:01:23.410, True, 1.990, 0.135653
2023/06/26 12:01:23.914, True, 1.990, 0.137026
2023/06/26 12:01:24.410, True, 2.022, 0.134432
2023/06/26 12:01:24.914, True, 1.990, 0.135195
2023/06/26 12:01:25.418, True, 1.658, 0.136187
2023/06/26 12:01:25.922, True, 1.989, 0.135424
2023/06/26 12:01:26.418, True, 1.685, 0.134813
2023/06/26 12:01:26.922, True, 1.658, 0.135729
2023/06/26 12:01:27.426, True, 1.990, 0.134890
2023/06/26 12:01:27.922, True, 1.685, 0.136187
2023/06/26 12:01:28.426, True, 1.989, 0.136873
2023/06/26 12:01:28.930, True, 1.990, 0.134813
2023/06/26 12:01:29.426, True, 2.022, 0.137865
2023/06/26 12:01:29.930, True, 1.658, 0.134432
2023/06/26 12:01:30.434, True, 1.990, 0.134737
2023/06/26 12:01:30.930, True, 2.022, 0.137102
2023/06/26 12:01:31.434, True, 1.993, 0.134279
2023/06/26 12:01:31.938, True, 1.987, 0.136263
2023/06/26 12:01:32.434, True, 2.022, 0.136416
2023/06/26 12:01:32.938, True, 1.658, 0.137026
2023/06/26 12:01:33.442, True, 1.990, 0.135424
2023/06/26 12:01:33.938, True, 2.022, 0.134279
2023/06/26 12:01:34.442, True, 1.659, 0.134127
2023/06/26 12:01:34.946, True, 1.989, 0.136568
2023/06/26 12:01:35.442, True, 2.022, 0.135729
2023/06/26 12:01:35.946, True, 1.989, 0.135729
2023/06/26 12:01:36.450, True, 1.990, 0.135424
2023/06/26 12:01:36.946, True, 1.684, 0.133059
2023/06/26 12:01:37.450, True, 1.990, 0.136034
2023/06/26 12:01:37.954, True, 1.990, 0.136187
2023/06/26 12:01:38.458, True, 1.661, 0.135653
2023/06/26 12:01:38.954, True, 2.018, 0.135042
2023/06/26 12:01:39.458, True, 1.658, 0.137255
2023/06/26 12:01:39.962, True, 1.990, 0.135271
2023/06/26 12:01:40.458, True, 2.023, 0.132677
2023/06/26 12:01:40.962, True, 1.657, 0.135119
2023/06/26 12:01:41.466, True, 1.992, 0.134508
2023/06/26 12:01:41.961, True, 1.683, 0.137102
2023/06/26 12:01:42.466, True, 1.990, 0.135958
2023/06/26 12:01:42.970, True, 1.990, 0.135729
2023/06/26 12:01:43.466, True, 1.685, 0.134356
2023/06/26 12:01:43.970, True, 1.658, 0.133440
2023/06/26 12:01:44.474, True, 1.990, 0.134890
2023/06/26 12:01:44.970, True, 1.686, 0.132906
2023/06/26 12:01:45.474, True, 1.988, 0.135882
2023/06/26 12:01:45.978, True, 1.990, 0.133593
2023/06/26 12:01:46.474, True, 1.685, 0.134279
2023/06/26 12:01:46.978, True, 1.990, 0.133059
2023/06/26 12:01:47.482, True, 1.989, 0.133898
2023/06/26 12:01:47.978, True, 1.685, 0.135424
2023/06/26 12:01:48.482, True, 1.990, 0.134127
2023/06/26 12:01:48.986, True, 1.658, 0.134737
2023/06/26 12:01:49.490, True, 1.993, 0.135729
2023/06/26 12:01:49.986, True, 2.020, 0.135805
2023/06/26 12:01:50.490, True, 1.989, 0.134127
2023/06/26 12:01:50.994, True, 1.989, 0.133135
2023/06/26 12:01:51.490, True, 1.685, 0.133516
2023/06/26 12:01:51.994, True, 1.989, 0.135653
2023/06/26 12:01:52.498, True, 1.990, 0.135424
2023/06/26 12:01:52.994, True, 1.688, 0.135653
2023/06/26 12:01:53.498, True, 1.986, 0.132143
2023/06/26 12:01:54.002, True, 1.993, 0.135271
2023/06/26 12:01:54.506, True, 1.986, 0.134890
2023/06/26 12:01:55.002, True, 1.684, 0.136950
2023/06/26 12:01:55.506, True, 1.659, 0.134508
2023/06/26 12:01:56.010, True, 1.991, 0.135653
2023/06/26 12:01:56.505, True, 2.020, 0.136187
2023/06/26 12:01:57.010, True, 1.991, 0.135042
2023/06/26 12:01:57.506, True, 1.685, 0.133288
2023/06/26 12:01:58.010, True, 1.991, 0.136110
2023/06/26 12:01:58.514, True, 1.989, 0.137026
2023/06/26 12:01:59.010, True, 2.020, 0.132067
2023/06/26 12:01:59.514, True, 1.991, 0.134966
2023/06/26 12:02:00.018, True, 1.657, 0.132677
2023/06/26 12:02:00.522, True, 1.992, 0.133288
2023/06/26 12:02:01.018, True, 2.021, 0.134356
2023/06/26 12:02:01.522, True, 1.658, 0.135348
2023/06/26 12:02:02.018, True, 2.021, 0.133059
2023/06/26 12:02:02.522, True, 1.990, 0.133898
2023/06/26 12:02:03.026, True, 1.991, 0.133440
2023/06/26 12:02:03.530, True, 1.655, 0.134432
2023/06/26 12:02:04.026, True, 2.024, 0.134890
2023/06/26 12:02:04.530, True, 1.990, 0.134127
2023/06/26 12:02:05.033, True, 1.990, 0.133745
2023/06/26 12:02:05.530, True, 2.023, 0.135195
2023/06/26 12:02:06.034, True, 1.986, 0.133669
2023/06/26 12:02:06.538, True, 1.993, 0.132830
2023/06/26 12:02:07.034, True, 2.022, 0.132906
2023/06/26 12:02:07.538, True, 1.989, 0.134203
2023/06/26 12:02:08.042, True, 1.656, 0.134203
2023/06/26 12:02:08.538, True, 2.022, 0.134051
2023/06/26 12:02:09.042, True, 1.989, 0.134966
2023/06/26 12:02:09.546, True, 1.990, 0.132525
2023/06/26 12:02:10.042, True, 2.022, 0.134051
2023/06/26 12:02:10.546, True, 1.990, 0.132296
2023/06/26 12:02:11.050, True, 1.993, 0.133745
2023/06/26 12:02:11.554, True, 1.986, 0.135348
2023/06/26 12:02:12.050, True, 2.022, 0.133593
2023/06/26 12:02:12.554, True, 1.990, 0.134127
2023/06/26 12:02:13.050, True, 2.022, 0.130999
2023/06/26 12:02:13.554, True, 1.989, 0.132601
2023/06/26 12:02:14.058, True, 1.990, 0.131991
2023/06/26 12:02:14.554, True, 1.685, 0.132067
2023/06/26 12:02:15.058, True, 1.990, 0.134432
2023/06/26 12:02:15.562, True, 1.990, 0.134813
2023/06/26 12:02:16.058, True, 2.025, 0.131304
2023/06/26 12:02:16.562, True, 1.988, 0.131380
2023/06/26 12:02:17.066, True, 1.990, 0.132219
2023/06/26 12:02:17.562, True, 2.020, 0.133211
2023/06/26 12:02:18.066, True, 1.658, 0.134203
2023/06/26 12:02:18.570, True, 1.991, 0.131304
2023/06/26 12:02:19.066, True, 2.020, 0.135271
2023/06/26 12:02:19.570, True, 1.658, 0.131838
2023/06/26 12:02:20.074, True, 1.990, 0.132982
2023/06/26 12:02:20.570, True, 1.684, 0.132753
2023/06/26 12:02:21.074, True, 1.660, 0.133135
2023/06/26 12:02:21.578, True, 1.656, 0.135271
2023/06/26 12:02:22.074, True, 2.022, 0.133135
2023/06/26 12:02:22.578, True, 1.658, 0.132525
2023/06/26 12:02:23.082, True, 1.990, 0.135119
2023/06/26 12:02:23.578, True, 2.022, 0.132219
2023/06/26 12:02:24.082, True, 1.658, 0.132296
2023/06/26 12:02:24.586, True, 1.990, 0.132143
2023/06/26 12:02:25.090, True, 1.990, 0.131762
2023/06/26 12:02:25.586, True, 2.023, 0.132982
2023/06/26 12:02:26.090, True, 1.657, 0.133059
2023/06/26 12:02:26.586, True, 2.022, 0.134127
2023/06/26 12:02:27.090, True, 1.990, 0.131685
2023/06/26 12:02:27.594, True, 1.658, 0.133440
2023/06/26 12:02:28.090, True, 2.022, 0.133135
2023/06/26 12:02:28.594, True, 1.658, 0.133059
2023/06/26 12:02:29.098, True, 1.660, 0.132067
2023/06/26 12:02:29.594, True, 2.019, 0.133059
2023/06/26 12:02:30.098, True, 1.659, 0.136339
2023/06/26 12:02:30.602, True, 1.989, 0.131838
2023/06/26 12:02:31.098, True, 2.026, 0.132601
2023/06/26 12:02:31.601, True, 1.655, 0.131838
2023/06/26 12:02:32.106, True, 1.989, 0.131914
2023/06/26 12:02:32.602, True, 1.685, 0.134661
2023/06/26 12:02:33.106, True, 1.990, 0.132067
2023/06/26 12:02:33.610, True, 1.989, 0.132982
2023/06/26 12:02:34.106, True, 2.022, 0.132525
2023/06/26 12:02:34.610, True, 1.659, 0.129931
2023/06/26 12:02:35.106, True, 2.022, 0.132601
2023/06/26 12:02:35.610, True, 1.988, 0.130236
2023/06/26 12:02:36.114, True, 1.658, 0.131228
2023/06/26 12:02:36.610, True, 1.685, 0.132296
2023/06/26 12:02:37.114, True, 1.989, 0.131609
2023/06/26 12:02:37.618, True, 1.658, 0.133745
2023/06/26 12:02:38.114, True, 2.023, 0.130999
2023/06/26 12:02:38.618, True, 1.657, 0.130999
2023/06/26 12:02:39.121, True, 1.660, 0.130617
2023/06/26 12:02:39.618, True, 1.682, 0.131685
2023/06/26 12:02:40.122, True, 1.660, 0.132219
2023/06/26 12:02:40.626, True, 1.987, 0.131151
2023/06/26 12:02:41.130, True, 1.658, 0.132143
2023/06/26 12:02:41.626, True, 2.022, 0.130007
2023/06/26 12:02:42.130, True, 1.658, 0.132143
2023/06/26 12:02:42.634, True, 1.990, 0.133288
2023/06/26 12:02:43.130, True, 2.022, 0.131456
2023/06/26 12:02:43.634, True, 1.658, 0.132143
2023/06/26 12:02:44.138, True, 1.989, 0.132830
2023/06/26 12:02:44.634, True, 2.022, 0.130999
2023/06/26 12:02:45.138, True, 1.660, 0.132982
2023/06/26 12:02:45.642, True, 1.987, 0.130465
2023/06/26 12:02:46.138, True, 2.022, 0.130465
2023/06/26 12:02:46.642, True, 1.990, 0.132677
2023/06/26 12:02:47.146, True, 1.990, 0.132677
2023/06/26 12:02:47.650, True, 1.658, 0.131533
2023/06/26 12:02:48.146, True, 1.685, 0.133516
2023/06/26 12:02:48.650, True, 1.989, 0.130236
2023/06/26 12:02:49.154, True, 1.327, 0.132296
2023/06/26 12:02:49.650, True, 2.021, 0.132296
2023/06/26 12:02:50.154, True, 1.658, 0.135042
2023/06/26 12:02:50.658, True, 1.658, 0.130541
2023/06/26 12:02:51.154, True, 2.022, 0.132067
2023/06/26 12:02:51.658, True, 1.658, 0.131838
2023/06/26 12:02:52.162, True, 1.658, 0.129778
2023/06/26 12:02:52.658, True, 2.025, 0.130846
2023/06/26 12:02:53.162, True, 1.986, 0.129168
2023/06/26 12:02:53.666, True, 1.990, 0.133059
2023/06/26 12:02:54.162, True, 1.686, 0.132753
2023/06/26 12:02:54.666, True, 1.989, 0.131456
2023/06/26 12:02:55.170, True, 1.989, 0.130236
2023/06/26 12:02:55.666, True, 1.685, 0.131914
2023/06/26 12:02:56.170, True, 1.990, 0.131380
2023/06/26 12:02:56.674, True, 1.989, 0.132372
2023/06/26 12:02:57.178, True, 1.992, 0.132525
2023/06/26 12:02:57.674, True, 2.019, 0.132067
2023/06/26 12:02:58.178, True, 1.990, 0.131762
2023/06/26 12:02:58.674, True, 2.022, 0.131151
2023/06/26 12:02:59.178, True, 1.991, 0.132143
2023/06/26 12:02:59.682, True, 1.657, 0.132753
2023/06/26 12:03:00.186, True, 1.990, 0.131228
2023/06/26 12:03:00.682, True, 2.022, 0.132067
2023/06/26 12:03:01.186, True, 1.990, 0.132830
2023/06/26 12:03:01.682, True, 1.685, 0.132372
2023/06/26 12:03:02.186, True, 1.989, 0.129168
2023/06/26 12:03:02.690, True, 1.658, 0.133745
2023/06/26 12:03:03.194, True, 1.990, 0.132906
2023/06/26 12:03:03.689, True, 2.022, 0.131456
2023/06/26 12:03:04.194, True, 1.658, 0.131914
2023/06/26 12:03:04.698, True, 1.990, 0.132372
2023/06/26 12:03:05.194, True, 1.685, 0.131991
2023/06/26 12:03:05.698, True, 1.990, 0.129931
2023/06/26 12:03:06.202, True, 1.991, 0.129549
2023/06/26 12:03:06.698, True, 2.020, 0.130922
2023/06/26 12:03:07.202, True, 1.990, 0.131991
2023/06/26 12:03:07.706, True, 1.658, 0.129473
2023/06/26 12:03:08.202, True, 2.023, 0.130312
2023/06/26 12:03:08.706, True, 1.989, 0.130388
2023/06/26 12:03:09.210, True, 1.658, 0.130770
2023/06/26 12:03:09.706, True, 2.025, 0.133516
2023/06/26 12:03:10.210, True, 1.986, 0.130770
2023/06/26 12:03:10.713, True, 1.992, 0.131304
2023/06/26 12:03:11.218, True, 1.987, 0.133211
2023/06/26 12:03:11.714, True, 2.022, 0.129778
2023/06/26 12:03:12.218, True, 1.990, 0.131533
2023/06/26 12:03:12.722, True, 1.658, 0.131609
2023/06/26 12:03:13.218, True, 2.022, 0.129778
2023/06/26 12:03:13.722, True, 1.990, 0.132219
2023/06/26 12:03:14.226, True, 1.990, 0.129244
2023/06/26 12:03:14.722, True, 2.022, 0.130617
2023/06/26 12:03:15.226, True, 1.660, 0.129931
2023/06/26 12:03:15.730, True, 1.656, 0.130770
2023/06/26 12:03:16.226, True, 2.022, 0.129397
2023/06/26 12:03:16.729, True, 1.990, 0.131380
2023/06/26 12:03:17.234, True, 1.659, 0.133211
2023/06/26 12:03:17.730, True, 2.020, 0.129244
2023/06/26 12:03:18.234, True, 1.989, 0.130922
2023/06/26 12:03:18.738, True, 1.990, 0.130999
2023/06/26 12:03:19.234, True, 1.685, 0.131228
2023/06/26 12:03:19.738, True, 1.990, 0.130770
2023/06/26 12:03:20.242, True, 1.989, 0.129473
2023/06/26 12:03:20.738, True, 2.022, 0.127871
2023/06/26 12:03:21.242, True, 1.990, 0.131609
2023/06/26 12:03:21.746, True, 1.990, 0.128786
2023/06/26 12:03:22.242, True, 2.022, 0.130846
2023/06/26 12:03:22.746, True, 1.990, 0.133669
2023/06/26 12:03:23.242, True, 1.684, 0.132906
2023/06/26 12:03:23.746, True, 1.992, 0.131075
2023/06/26 12:03:24.250, True, 1.989, 0.131762
2023/06/26 12:03:24.754, True, 1.990, 0.129320
2023/06/26 12:03:25.250, True, 1.684, 0.132143
2023/06/26 12:03:25.754, True, 1.988, 0.130388
2023/06/26 12:03:26.250, True, 1.685, 0.127489
2023/06/26 12:03:26.754, True, 1.991, 0.129854
2023/06/26 12:03:27.258, True, 1.988, 0.130007
2023/06/26 12:03:27.762, True, 1.992, 0.127489
2023/06/26 12:03:28.257, True, 2.021, 0.130770
2023/06/26 12:03:28.762, True, 1.991, 0.129397
2023/06/26 12:03:29.258, True, 2.020, 0.129015
2023/06/26 12:03:29.762, True, 1.660, 0.129854
2023/06/26 12:03:30.266, True, 1.990, 0.130236
2023/06/26 12:03:30.770, True, 1.986, 0.129778
2023/06/26 12:03:31.266, True, 2.023, 0.130999
2023/06/26 12:03:31.769, True, 1.991, 0.129168
2023/06/26 12:03:32.274, True, 1.656, 0.129778
2023/06/26 12:03:32.770, True, 2.021, 0.129168
2023/06/26 12:03:33.274, True, 1.661, 0.129625
2023/06/26 12:03:33.778, True, 1.989, 0.129854
2023/06/26 12:03:34.274, True, 2.019, 0.130312
2023/06/26 12:03:34.778, True, 1.658, 0.130999
2023/06/26 12:03:35.282, True, 1.990, 0.132677
2023/06/26 12:03:35.778, True, 1.686, 0.130312
2023/06/26 12:03:36.282, True, 1.988, 0.129168
2023/06/26 12:03:36.786, True, 1.990, 0.130465
2023/06/26 12:03:37.282, True, 2.022, 0.129091
2023/06/26 12:03:37.785, True, 1.659, 0.131075
2023/06/26 12:03:38.290, True, 1.989, 0.128862
2023/06/26 12:03:38.786, True, 2.021, 0.129625
2023/06/26 12:03:39.290, True, 1.992, 0.130007
2023/06/26 12:03:39.786, True, 2.020, 0.130617
2023/06/26 12:03:40.290, True, 1.658, 0.128557
2023/06/26 12:03:40.794, True, 1.990, 0.129397
2023/06/26 12:03:41.290, True, 2.022, 0.129702
2023/06/26 12:03:41.794, True, 1.989, 0.130617
2023/06/26 12:03:42.298, True, 1.990, 0.130541
2023/06/26 12:03:42.793, True, 2.021, 0.130312
2023/06/26 12:03:43.298, True, 1.990, 0.130312
2023/06/26 12:03:43.802, True, 1.990, 0.128405
2023/06/26 12:03:44.298, True, 1.685, 0.129778
2023/06/26 12:03:44.802, True, 1.990, 0.130312
2023/06/26 12:03:45.306, True, 1.990, 0.127489
2023/06/26 12:03:45.802, True, 2.022, 0.130159
2023/06/26 12:03:46.306, True, 1.990, 0.129625
2023/06/26 12:03:46.810, True, 1.990, 0.128786
2023/06/26 12:03:47.306, True, 2.022, 0.131762
2023/06/26 12:03:47.810, True, 1.990, 0.132143
2023/06/26 12:03:48.314, True, 1.990, 0.129549
2023/06/26 12:03:48.818, True, 1.990, 0.127947
2023/06/26 12:03:49.314, True, 1.685, 0.130312
2023/06/26 12:03:49.818, True, 1.990, 0.129397
2023/06/26 12:03:50.314, True, 2.022, 0.130846
2023/06/26 12:03:50.818, True, 1.658, 0.130236
2023/06/26 12:03:51.322, True, 1.993, 0.129091
2023/06/26 12:03:51.818, True, 2.018, 0.129778
2023/06/26 12:03:52.322, True, 1.990, 0.130541
2023/06/26 12:03:52.826, True, 1.658, 0.128786
2023/06/26 12:03:53.322, True, 2.021, 0.129091
2023/06/26 12:03:53.826, True, 1.990, 0.128176
2023/06/26 12:03:54.330, True, 1.990, 0.128328
2023/06/26 12:03:54.826, True, 1.685, 0.129625
2023/06/26 12:03:55.330, True, 1.989, 0.128328
2023/06/26 12:03:55.834, True, 1.990, 0.130922
2023/06/26 12:03:56.330, True, 2.023, 0.128634
2023/06/26 12:03:56.833, True, 1.657, 0.129625
2023/06/26 12:03:57.338, True, 1.989, 0.128939
2023/06/26 12:03:57.834, True, 2.022, 0.129549
2023/06/26 12:03:58.338, True, 1.990, 0.132067
2023/06/26 12:03:58.842, True, 1.658, 0.129702
2023/06/26 12:03:59.338, True, 2.022, 0.129091
2023/06/26 12:03:59.842, True, 1.658, 0.131685
2023/06/26 12:04:00.346, True, 1.990, 0.130846
2023/06/26 12:04:00.842, True, 2.022, 0.130694
2023/06/26 12:04:01.346, True, 1.658, 0.129473
2023/06/26 12:04:01.842, True, 2.022, 0.128252
2023/06/26 12:04:02.346, True, 1.660, 0.130236
2023/06/26 12:04:02.850, True, 1.991, 0.128862
2023/06/26 12:04:03.354, True, 1.986, 0.128328
2023/06/26 12:04:03.850, True, 1.685, 0.127947
2023/06/26 12:04:04.354, True, 1.658, 0.129625
2023/06/26 12:04:04.858, True, 1.989, 0.130541
2023/06/26 12:04:05.354, True, 1.684, 0.130465
2023/06/26 12:04:05.858, True, 1.990, 0.129091
2023/06/26 12:04:06.362, True, 1.990, 0.128176
2023/06/26 12:04:06.858, True, 2.022, 0.127642
2023/06/26 12:04:07.362, True, 1.658, 0.128557
2023/06/26 12:04:07.866, True, 1.990, 0.131609
2023/06/26 12:04:08.362, True, 2.022, 0.127947
2023/06/26 12:04:08.866, True, 1.658, 0.128786
2023/06/26 12:04:09.370, True, 1.993, 0.127184
2023/06/26 12:04:09.874, True, 1.655, 0.128176
2023/06/26 12:04:10.370, True, 2.022, 0.128939
2023/06/26 12:04:10.874, True, 1.990, 0.131609
2023/06/26 12:04:11.378, True, 1.657, 0.129015